Погода в Круглом Поле

Россия / Республика Татарстан     55°37′17″N   52°10′49″E
темп.,
°C
ветер,
м/с
пор.,
м/с
влажн.,
%
обл.,
%
осадки,
мм/ч
давл.,
гПа
погр.,
м
24 января, вс
вс2400:00−11ю4894100 0.2 1024264
03:00−9ю4895100 0.9 1023257
06:00−5ююз4896100 1.2 1021250
09:00−2ююз4897100 1.6 1021253
12:000юз51099100 0.2 1022350
15:00+1юз410100100 0.3 1022262
18:00+1юз4999100 0.1 1024241
21:00+1юз510100100 0.4 1025290
25 января, пн
пн2500:00+1ююз61196100 0.1 1026355
03:000юз61293100 0.6 1027430
06:00−2ююз61196100 0.2 1027424
09:00−2юз71297100 0.3 1029469
12:00−2юз71196100 0.0 1029553
15:00−2ююз61095100 0.1 1030555
18:00−2ююз51092100 0.0 1029576
21:00−4ююз41094100 0.0 1030338
26 января, вт
вт2600:00−5ююз71092100 0.1 1029586
03:00−4ю31195100 0.1 1029633
06:00−3ююз51293100 0.1 1028579
09:00−2ююз5109099 0.1 1028744
12:00−2ююз61090100 0.0 1028684
15:00−2ююз61091100 0.1 1027548
18:00−3ююз61293100 0.0 1027500
21:00−5ююз61492100 0.0 1027468
27 января, ср
ср2700:00−7ююз51393100 0.0 1028465
03:00−7ююз51094100 0.1 1027512
06:00−6ююз51193100 0.1 1026530
09:00−7ю61293100 0.1 1026403
12:00−5ю71290100 0.0 1026425
15:00−5ю61289100 0.0 1025410
18:00−6ю51490100 0.0 1025366
21:00−6ю61588100 0.0 1025357
28 января, чт
чт2800:00−6ю61586100 0.0 1024359
03:00−6ю61385100 0.0 1023350
06:00−7ю61385100 0.0 1023346
09:00−7ю61384100 0.0 1022348
12:00−5ю71384100 0.0 1022415
15:00−6ю61286100 0.0 1021356
18:00−7ю61485100 0.0 1020305
21:00−7ю51585100 0.0 1019287